Temp_Advection
nan nan nan nan nan nan nan nan nan nan nan nan nan nan nan nan nan nan nan nan nan nan nan nan nan nan nan nan nan nan nan nan nan nan nan nan nan nan
nan 1 0 0 0 0 0 1 1 1 -0 -2 -1 0 0 0 1 0 -0 -0 0 0 1 1 -0 -1 -1 -1 -0 -0 -1 -0 -1 -1 -1 -0 -0 nan
nan 0 0 0 0 1 0 0 1 1 0 -1 -1 -1 -1 -1 -1 -0 -0 -0 -1 0 1 1 -0 -1 -1 -0 -0 -0 -0 -1 -1 -0 -1 -1 -1 nan
nan -0 -0 0 1 1 0 0 1 1 1 -1 -1 -1 -1 -1 -1 -1 -1 -1 -1 -1 1 1 1 0 -0 -0 -1 -0 -0 -0 -0 -0 -1 -1 -1 nan
nan -0 -0 0 0 1 0 0 1 1 1 1 -0 -1 -0 -1 -1 -1 -1 -1 -1 -1 -0 0 -0 0 1 0 -0 0 0 -0 -0 -0 -0 -1 -1 nan
nan -0 -0 -0 -0 1 1 1 1 0 0 0 0 0 -0 -0 -0 -0 -1 -1 -1 -1 0 -0 -0 -0 0 0 0 0 0 1 1 -0 -0 -1 -1 nan
nan -0 -0 0 0 0 1 1 1 0 0 0 0 -0 0 -0 -0 -0 -0 -1 -1 -2 -1 0 -1 -1 -0 0 0 -0 -0 1 1 -1 -0 -0 -0 nan
nan 0 0 -0 0 0 1 1 1 0 0 -0 -0 -0 0 0 -0 0 0 -0 -1 -1 -1 -1 -1 -1 -1 -0 -0 0 1 1 1 -1 -0 -0 -0 nan
nan -0 0 0 0 0 1 0 0 1 0 0 -0 0 -0 0 -0 -0 -0 0 -0 -1 -0 -1 -2 -2 -1 -0 -1 -0 -0 1 2 -0 -0 -0 -0 nan
nan 0 -0 -0 0 0 -0 0 -0 -0 0 0 0 0 0 -0 0 0 0 -0 -1 -1 0 -1 -1 -1 -1 -1 -1 -1 0 0 1 1 -0 -0 -0 nan
nan 0 -0 -1 -1 1 0 -0 -0 -0 -0 0 0 0 1 0 0 0 1 0 -1 -1 -1 -1 -1 -1 -3 -2 -2 -1 -0 1 0 0 1 0 -1 nan
nan -0 0 0 -0 -1 -0 0 -0 -0 -0 -1 -0 0 0 1 1 1 1 1 0 -1 -0 -1 -0 -1 -2 -2 -1 -2 -2 -0 0 1 1 1 0 nan
nan 0 0 0 0 0 -0 -0 1 0 -0 -1 -1 -0 -0 -0 0 1 1 1 1 -1 1 2 1 1 -1 -2 -3 -1 -1 -1 -1 -0 0 1 1 nan
nan -0 0 0 0 0 0 0 0 0 0 -0 -0 -0 -0 -0 -0 0 0 1 1 0 0 2 1 1 1 -0 -3 -2 -1 -0 -1 -1 -0 0 0 nan
nan -0 -0 0 -0 -0 0 0 0 0 -0 -0 -0 -0 0 -0 -0 -0 -0 0 -0 1 1 1 1 1 1 0 -1 -2 -1 -2 0 0 -0 -0 -0 nan
nan 0 0 0 0 -0 -0 0 0 0 0 -0 -0 -0 0 0 0 0 -0 -0 -1 -1 0 1 1 1 0 1 0 -1 1 -1 -2 0 0 -0 -1 nan
nan -0 -0 -0 -0 0 0 0 0 0 0 0 0 -0 -0 -0 -0 0 0 0 -0 -1 -1 -0 0 1 1 1 -1 -1 0 0 -0 0 -0 -2 -1 nan
nan -0 -0 -0 -0 -0 -0 -0 0 0 0 0 0 0 -0 -0 -1 0 0 0 0 -0 -0 -1 -0 -1 -1 -0 0 -2 -1 -0 -0 1 2 0 -3 nan
nan -0 -0 -0 -0 -0 -0 -0 -0 0 0 0 0 -0 -0 -0 -0 -1 0 -0 -0 -0 -0 0 0 1 0 -2 -1 1 -1 -1 -1 -1 0 1 -1 nan
nan -0 -0 -0 -0 -0 -0 -0 -0 -0 -0 -0 0 -0 0 -0 0 -0 -0 -0 -0 -0 -0 0 1 1 1 1 -3 -0 3 1 0 -0 -0 -1 -1 nan
nan -0 -0 -0 -0 -0 -0 -0 -0 -0 0 -0 0 0 0 -0 -0 0 0 0 -0 -0 -0 -0 0 1 1 1 0 -3 -0 2 2 1 1 0 -1 nan
nan -0 -0 -0 -0 -0 -0 -0 -0 0 0 0 0 0 0 0 0 0 0 0 0 0 0 -0 0 0 1 0 0 -1 -1 -0 1 1 1 1 1 nan
nan nan nan nan nan nan nan nan nan nan nan nan nan nan nan nan nan nan nan nan nan nan nan nan nan nan nan nan nan nan nan nan nan nan nan nan nan nan
Wind_Speed
19 16 14 12 13 14 16 17 18 16 24 24 25 27 31 34 34 34 34 34 33 30 29 28 28 26 27 27 27 28 27 29 30 31 30 31 31 32
16 15 13 13 14 16 17 18 20 21 22 25 30 32 33 33 34 34 34 34 31 29 28 28 27 27 27 26 27 28 29 30 30 30 31 31 31 32
14 12 12 12 15 17 18 19 21 23 29 33 32 31 33 35 35 35 35 36 33 30 29 28 26 26 26 28 28 28 29 28 29 30 31 32 31 32
11 10 12 16 16 17 19 20 23 24 29 33 34 34 35 34 36 37 37 35 33 29 29 28 27 27 27 27 26 26 28 30 31 31 32 32 32 33
11 14 15 15 16 18 21 22 24 26 27 31 35 35 35 35 38 39 40 39 36 30 28 30 28 26 25 25 27 30 32 31 31 31 32 33 33 33
12 16 16 17 18 20 22 23 24 26 27 30 33 35 36 37 38 41 43 40 35 30 31 31 24 27 30 31 30 29 30 29 29 30 30 31 32 32
14 15 17 19 20 21 22 23 24 26 27 29 32 36 37 38 41 42 40 37 37 34 35 33 36 38 35 34 31 30 28 27 27 29 31 32 34 33
15 15 16 19 20 20 22 22 21 21 24 28 30 34 38 40 39 35 35 37 39 35 39 45 38 41 37 35 32 31 30 29 30 30 30 30 31 31
13 16 17 18 20 22 22 19 20 21 22 26 33 35 38 33 31 35 34 35 36 43 39 47 42 43 35 35 33 31 29 27 26 27 28 28 28 28
15 17 18 20 22 22 23 22 22 25 28 29 30 31 29 29 31 34 37 40 41 38 33 47 43 42 39 39 34 28 22 23 27 25 25 28 30 32
15 17 21 23 23 22 19 23 29 29 25 23 24 26 28 29 28 31 33 33 40 41 37 32 41 43 44 40 32 26 29 34 30 30 30 29 29 30
17 20 21 22 19 16 21 26 27 25 23 27 26 24 24 26 25 25 28 32 34 40 26 33 41 35 32 36 25 40 39 35 32 31 30 29 29 30
21 22 21 19 16 19 19 22 23 22 25 24 25 26 25 25 26 25 25 29 33 37 38 32 41 38 35 43 46 45 42 39 36 34 32 29 26 25
20 21 20 20 23 22 22 20 19 21 22 23 26 26 28 27 24 27 29 29 30 34 35 31 36 35 36 41 46 46 43 42 40 37 31 22 20 20
19 20 22 23 23 21 18 17 18 18 20 22 24 27 27 27 30 29 29 29 32 31 28 26 28 30 31 36 42 46 45 44 36 31 34 29 27 26
21 22 22 22 20 18 16 14 15 17 20 22 25 25 26 29 29 30 32 32 35 35 28 27 28 29 33 35 38 44 42 42 38 33 33 34 31 29
22 22 22 21 18 16 15 14 16 17 20 23 23 25 28 30 31 32 33 35 36 37 37 31 28 31 32 33 36 37 36 36 35 36 35 37 34 31
22 22 21 19 18 18 17 18 18 20 21 23 22 26 29 32 35 35 34 34 36 37 37 36 37 37 36 37 29 31 37 38 39 39 39 38 40 35
21 20 19 18 18 16 18 20 21 21 23 21 22 26 31 34 36 36 35 36 37 37 37 38 38 37 36 38 43 28 29 41 36 35 34 35 39 36
18 18 17 17 16 17 19 21 22 23 23 20 23 28 32 34 35 36 36 37 37 37 39 38 37 38 37 42 47 46 35 34 37 37 38 36 36 34
17 16 16 16 16 18 20 21 23 24 24 22 24 29 33 33 35 36 37 36 34 36 39 40 39 35 34 35 37 42 39 31 31 32 33 35 36 34
16 16 16 16 18 19 21 22 24 24 21 21 26 31 32 34 34 34 37 38 37 37 39 41 39 37 36 34 36 39 39 37 29 28 24 21 24 24
14 15 15 17 19 20 21 23 25 25 20 22 30 31 31 36 33 35 36 38 38 38 39 40 39 38 35 33 34 37 37 37 36 34 27 22 21 22
Wind_Direction
233 238 251 259 274 282 285 288 290 291 296 297 302 306 308 307 309 312 313 312 312 306 300 297 295 294 291 292 291 287 289 285 283 282 281 281 279 279
233 243 259 269 279 285 289 290 292 292 285 296 301 303 304 306 310 312 312 314 312 306 301 298 295 293 292 292 289 289 286 284 283 282 281 281 280 279
244 253 258 277 287 288 289 294 295 295 292 296 300 303 303 307 309 311 313 316 310 307 303 298 296 295 293 289 289 287 287 285 283 282 281 280 279 277
247 262 276 279 282 291 292 294 294 293 295 299 303 308 309 311 313 314 316 316 314 313 306 302 299 297 293 290 289 287 286 285 284 283 281 278 277 276
272 275 280 288 292 291 294 295 294 295 297 300 304 309 310 314 315 315 318 321 319 315 308 307 310 302 297 295 291 287 286 284 282 280 278 277 276 276
273 282 288 291 293 294 294 297 297 297 299 301 305 307 309 312 314 319 318 318 318 316 311 313 313 308 306 305 300 298 293 290 284 281 279 277 275 274
276 285 289 292 300 302 297 296 294 295 300 305 303 306 308 314 316 317 314 319 317 320 318 317 316 311 312 311 308 301 298 291 287 284 281 278 276 275
276 288 295 299 300 299 298 294 294 300 302 302 304 303 305 309 311 314 316 317 313 317 316 308 312 310 312 309 307 306 304 294 287 285 283 280 277 276
294 300 299 302 304 304 304 301 301 299 293 296 296 299 303 310 315 315 314 309 302 306 311 307 310 308 313 307 310 309 302 293 289 286 283 280 278 275
302 303 305 307 311 311 310 311 304 300 300 302 303 304 308 313 308 302 300 299 300 304 311 304 311 309 313 310 313 312 301 299 301 288 284 282 279 276
304 307 314 317 313 312 315 304 302 306 310 303 300 303 306 307 308 305 306 307 306 309 313 304 313 312 312 314 318 319 314 312 302 294 291 284 280 277
313 316 315 314 316 318 305 302 306 316 315 313 316 313 314 314 313 310 311 309 311 313 312 309 309 313 314 309 307 308 310 309 307 304 300 292 281 274
315 317 319 317 319 310 311 310 313 315 305 311 315 318 320 319 318 317 316 312 308 301 309 307 303 302 297 303 305 309 311 313 310 307 303 297 287 267
318 321 322 322 317 318 316 316 312 311 315 317 319 323 324 326 326 324 318 312 307 305 311 308 301 305 304 303 302 310 311 310 309 308 308 301 292 282
321 322 322 320 321 322 321 319 316 316 317 320 323 327 330 330 327 326 324 322 316 316 318 316 311 311 304 299 301 305 308 311 308 304 306 303 298 289
323 326 324 324 323 321 321 320 321 324 328 327 326 330 333 333 334 335 330 330 323 323 325 324 321 315 308 305 305 302 305 299 309 308 308 304 301 293
323 327 326 325 327 327 330 333 332 332 330 330 333 336 336 334 334 335 335 333 327 327 327 329 326 321 316 312 307 306 308 306 310 311 310 307 302 298
327 327 327 328 330 332 334 336 338 336 335 337 338 337 335 335 334 336 334 331 331 331 330 333 333 331 328 322 315 312 314 311 315 313 307 297 295 298
325 326 328 329 332 335 334 336 337 339 339 338 337 339 338 337 335 334 336 335 333 332 333 336 334 329 311 304 324 311 292 309 311 307 306 299 296 296
326 330 330 332 335 333 334 336 337 340 339 336 339 340 340 338 339 339 338 336 334 333 332 336 335 331 315 309 311 322 327 310 308 307 308 309 304 305
330 333 334 336 335 333 335 337 338 339 339 337 338 339 340 341 341 344 342 338 336 336 335 336 336 334 329 330 315 321 333 334 326 315 313 304 302 305
332 337 340 339 336 335 336 337 339 340 338 337 339 340 340 342 340 338 342 341 340 340 336 335 338 340 339 333 323 327 336 343 345 338 334 324 304 281
331 337 341 341 339 338 337 337 338 340 340 338 340 339 343 343 345 341 339 341 341 340 339 338 341 343 341 341 336 336 342 348 347 346 347 349 333 317
Height
1497 1496 1498 1498 1499 1499 1499 1499 1497 1493 1490 1490 1489 1487 1484 1479 1476 1471 1467 1463 1460 1457 1454 1451 1449 1447 1445 1443 1441 1439 1436 1435 1433 1431 1430 1429 1428 1427
1493 1494 1494 1495 1494 1495 1494 1493 1493 1491 1486 1483 1483 1480 1477 1473 1470 1465 1461 1456 1453 1449 1446 1443 1441 1439 1437 1435 1432 1430 1427 1425 1424 1422 1421 1420 1418 1417
1490 1490 1491 1490 1490 1491 1491 1489 1488 1486 1481 1476 1475 1474 1469 1466 1462 1458 1453 1449 1445 1443 1438 1434 1432 1430 1428 1426 1423 1420 1419 1416 1415 1413 1411 1410 1409 1408
1488 1488 1487 1487 1487 1486 1485 1483 1483 1482 1476 1470 1467 1464 1461 1459 1454 1450 1446 1442 1438 1435 1431 1427 1425 1421 1418 1416 1414 1412 1410 1407 1404 1403 1401 1400 1399 1398
1486 1487 1484 1483 1482 1481 1480 1478 1477 1475 1471 1465 1458 1456 1453 1452 1446 1442 1437 1433 1430 1427 1423 1419 1416 1412 1409 1408 1406 1403 1399 1396 1394 1392 1390 1389 1388 1387
1484 1486 1483 1480 1477 1475 1475 1473 1471 1468 1465 1460 1454 1451 1448 1445 1441 1434 1428 1427 1422 1420 1415 1411 1408 1405 1402 1399 1395 1391 1388 1385 1382 1380 1379 1378 1377 1376
1481 1480 1479 1477 1473 1470 1469 1467 1465 1462 1459 1454 1450 1446 1442 1438 1434 1429 1422 1418 1414 1412 1405 1402 1400 1396 1392 1388 1385 1381 1379 1375 1373 1372 1370 1368 1367 1366
1477 1475 1474 1472 1468 1466 1464 1463 1461 1457 1453 1449 1446 1441 1436 1433 1428 1423 1418 1413 1404 1405 1400 1394 1393 1387 1385 1380 1376 1372 1369 1366 1364 1362 1360 1358 1356 1355
1473 1471 1470 1466 1463 1461 1459 1457 1454 1452 1449 1446 1439 1436 1430 1428 1423 1417 1414 1408 1403 1399 1394 1382 1384 1377 1377 1370 1368 1364 1360 1357 1354 1352 1351 1348 1346 1345
1468 1466 1464 1461 1458 1456 1453 1450 1448 1445 1443 1438 1434 1429 1426 1423 1419 1414 1408 1401 1396 1392 1391 1374 1373 1367 1364 1360 1359 1355 1352 1350 1346 1344 1342 1339 1337 1334
1465 1463 1459 1455 1453 1451 1449 1445 1441 1438 1435 1432 1428 1425 1421 1417 1413 1406 1401 1395 1386 1382 1381 1373 1364 1358 1353 1348 1346 1346 1343 1340 1337 1334 1330 1327 1325 1323
1461 1458 1454 1451 1448 1447 1444 1438 1433 1431 1427 1423 1421 1418 1415 1411 1407 1403 1396 1390 1385 1374 1373 1369 1359 1356 1343 1338 1337 1336 1333 1331 1326 1322 1319 1316 1314 1312
1456 1453 1450 1446 1444 1441 1437 1432 1428 1426 1422 1419 1415 1412 1408 1405 1401 1397 1392 1387 1380 1372 1368 1364 1353 1351 1347 1333 1325 1324 1322 1318 1314 1310 1308 1305 1302 1300
1451 1448 1445 1441 1438 1434 1431 1427 1424 1421 1418 1414 1410 1406 1402 1398 1394 1391 1386 1381 1375 1367 1361 1358 1349 1345 1338 1329 1319 1314 1312 1308 1304 1299 1296 1293 1292 1292
1447 1444 1440 1436 1432 1429 1426 1424 1421 1418 1414 1410 1406 1402 1397 1392 1388 1383 1378 1372 1366 1361 1355 1350 1344 1337 1332 1324 1315 1307 1302 1297 1295 1289 1287 1284 1282 1281
1443 1440 1435 1432 1428 1426 1424 1422 1418 1415 1410 1406 1402 1398 1393 1387 1382 1377 1370 1365 1357 1350 1347 1343 1337 1331 1324 1318 1311 1300 1296 1290 1285 1282 1278 1273 1271 1269
1439 1435 1432 1428 1426 1423 1420 1418 1415 1411 1407 1403 1398 1393 1388 1382 1377 1372 1365 1358 1351 1343 1336 1334 1330 1324 1317 1311 1302 1294 1286 1281 1276 1271 1268 1262 1259 1257
1435 1432 1429 1426 1423 1420 1417 1414 1411 1407 1404 1399 1394 1390 1384 1378 1372 1365 1360 1354 1346 1338 1331 1326 1319 1311 1305 1298 1295 1285 1278 1272 1266 1262 1258 1253 1247 1246
1433 1430 1427 1424 1421 1418 1414 1411 1407 1404 1400 1395 1391 1387 1381 1374 1368 1361 1354 1347 1340 1333 1327 1320 1313 1307 1299 1289 1283 1282 1273 1264 1259 1254 1250 1246 1239 1234
1431 1428 1425 1422 1419 1415 1412 1408 1404 1400 1396 1392 1388 1384 1378 1370 1363 1357 1350 1343 1335 1328 1321 1316 1309 1303 1297 1287 1275 1265 1265 1257 1252 1245 1238 1235 1228 1223
1428 1426 1423 1420 1416 1413 1409 1406 1401 1397 1392 1388 1385 1380 1374 1367 1360 1354 1346 1340 1333 1326 1317 1310 1304 1299 1291 1282 1272 1261 1254 1251 1245 1238 1231 1226 1219 1214
1426 1423 1421 1417 1414 1410 1407 1403 1398 1394 1390 1386 1381 1376 1369 1364 1357 1350 1343 1336 1329 1322 1314 1306 1298 1291 1284 1278 1268 1258 1249 1240 1236 1231 1225 1220 1214 1206
1424 1421 1418 1415 1412 1408 1404 1400 1395 1391 1386 1382 1378 1372 1366 1359 1353 1347 1340 1333 1326 1319 1312 1302 1293 1287 1279 1272 1264 1255 1246 1238 1229 1221 1217 1213 1207 1200